Location: Unspecified
(17.6330°N, 0.0000°E)
Time: 15:16:35
(UTC+00:00)

A-11 Canister half - Pass Details

Date: 17 June 2019
Orbit: 1514 x 1685 km, 47.2° (Epoch: 20 July)

Event Time Altitude Azimuth Distance (km) Brightness Sun altitude
Rises 21:49:43 0° 285° (WNW) 4,651 12.2 -37.9°
Reaches altitude 10° 21:54:47 10° 262° (W) 3,668 11.2 -38.7°
Maximum altitude 21:59:01 14° 234° (SW) 3,366 10.7 -39.3°
Enters shadow 21:59:26 14° 231° (SW) 3,370 10.7 -39.4°
Drops below altitude 10° 22:03:17 10° 206° (SSW) 3,688 - -39.9°
Sets 22:08:29 0° 182° (S) 4,695 - -40.6°
